• In Belgium
  • List of Countries
  • For 7 days
  • Water Temperature
  • Satellite Maps
  • Weather Map
  • Weather Widgets
  • user-avatar
    Login

    Hourly Weather Satif

    Today, 20 September, Wednesday

    Time Temperature Precipitation Wind Pressure Humidity
    00:00 +16°C° 0 mm 1 mps 675 mmHg 63%
    01:00 +16°C° 0 mm 1 mps 675 mmHg 64%
    02:00 +15°C° 0 mm 1 mps 675 mmHg 66%
    03:00 +15°C° 0 mm 1 mps 675 mmHg 67%
    04:00 +15°C° 0 mm 1 mps 675 mmHg 68%
    05:00 +15°C° 0 mm 1 mps 675 mmHg 69%
    06:00 +14°C° 0 mm 1 mps 675 mmHg 70%
    07:00 +16°C° 0 mm 1 mps 675 mmHg 64%
    08:00 +18°C° 0 mm 1 mps 676 mmHg 58%
    09:00 +19°C° 0 mm 1 mps 677 mmHg 52%
    10:00 +20°C° 0 mm 1 mps 677 mmHg 48%
    11:00 +20°C° 0 mm 2 mps 677 mmHg 43%
    12:00 +21°C° 0 mm 2 mps 677 mmHg 39%
    13:00 +21°C° 0 mm 2 mps 677 mmHg 38%
    14:00 +23°C° 0 mm 2 mps 677 mmHg 38%
    15:00 +22°C° 0 mm 3 mps 676 mmHg 37%
    16:00 +23°C° 0 mm 2 mps 676 mmHg 41%
    17:00 +21°C° 0 mm 2 mps 676 mmHg 45%
    18:00 +20°C° 0 mm 2 mps 676 mmHg 48%
    19:00 +20°C° 0 mm 2 mps 676 mmHg 52%
    20:00 +20°C° 0 mm 1 mps 676 mmHg 55%
    21:00 +19°C° 0 mm 1 mps 676 mmHg 59%
    22:00 +19°C° 0 mm 1 mps 676 mmHg 60%
    23:00 +19°C° 0 mm 1 mps 676 mmHg 61%

    Tomorrow, 21 September, Thursday

    Time Temperature Precipitation Wind Pressure Humidity
    00:00 +18°C° 0 mm 1 mps 675 mmHg 62%
    01:00 +18°C° 0 mm 1 mps 675 mmHg 62%
    02:00 +18°C° 0 mm 1 mps 675 mmHg 61%
    03:00 +18°C° 0 mm 1 mps 674 mmHg 61%
    04:00 +17°C° 0 mm 2 mps 675 mmHg 60%
    05:00 +17°C° 0 mm 2 mps 675 mmHg 59%
    06:00 +17°C° 0 mm 2 mps 675 mmHg 58%
    07:00 +19°C° 0 mm 3 mps 675 mmHg 52%
    08:00 +20°C° 0 mm 4 mps 676 mmHg 46%
    09:00 +22°C° 0 mm 4 mps 676 mmHg 40%
    10:00 +23°C° 0 mm 4 mps 676 mmHg 38%
    11:00 +25°C° 0 mm 4 mps 676 mmHg 35%
    12:00 +26°C° 0 mm 4 mps 676 mmHg 32%
    13:00 +26°C° 0 mm 4 mps 676 mmHg 32%
    14:00 +26°C° 0 mm 4 mps 675 mmHg 31%
    15:00 +26°C° 0 mm 4 mps 675 mmHg 31%
    16:00 +25°C° 0 mm 3 mps 675 mmHg 34%
    17:00 +25°C° 0 mm 3 mps 675 mmHg 37%
    18:00 +24°C° 0 mm 2 mps 675 mmHg 40%
    19:00 +23°C° 0 mm 2 mps 675 mmHg 41%
    20:00 +23°C° 0 mm 2 mps 675 mmHg 43%
    21:00 +21°C° 0 mm 2 mps 675 mmHg 45%
    22:00 +21°C° 0 mm 2 mps 675 mmHg 46%
    23:00 +20°C° 0 mm 2 mps 675 mmHg 47%

    Day after tomorrow, 22 September, Friday

    Time Temperature Precipitation Wind Pressure Humidity
    00:00 +20°C° 0 mm 2 mps 674 mmHg 48%
    01:00 +19°C° 0 mm 2 mps 674 mmHg 49%
    02:00 +19°C° 0 mm 2 mps 674 mmHg 50%
    03:00 +19°C° 0 mm 2 mps 674 mmHg 51%
    04:00 +19°C° 0 mm 2 mps 674 mmHg 52%
    05:00 +18°C° 0 mm 2 mps 674 mmHg 52%
    06:00 +18°C° 0 mm 2 mps 674 mmHg 53%
    07:00 +20°C° 0 mm 3 mps 675 mmHg 47%
    08:00 +22°C° 0 mm 3 mps 675 mmHg 41%
    09:00 +25°C° 0 mm 3 mps 676 mmHg 35%
    10:00 +26°C° 0 mm 3 mps 676 mmHg 32%
    11:00 +27°C° 0 mm 3 mps 676 mmHg 30%
    12:00 +28°C° 0 mm 3 mps 676 mmHg 27%
    13:00 +28°C° 0 mm 3 mps 676 mmHg 27%
    14:00 +28°C° 0 mm 3 mps 676 mmHg 27%
    15:00 +28°C° 0 mm 3 mps 676 mmHg 27%
    16:00 +27°C° 0 mm 3 mps 676 mmHg 31%
    17:00 +26°C° 0 mm 2 mps 675 mmHg 34%
    18:00 +25°C° 0 mm 2 mps 675 mmHg 37%
    19:00 +25°C° 0 mm 2 mps 676 mmHg 39%
    20:00 +24°C° 0 mm 1 mps 676 mmHg 41%
    21:00 +23°C° 0 mm 1 mps 676 mmHg 43%
    22:00 +23°C° 0 mm 1 mps 676 mmHg 44%
    23:00 +23°C° 0 mm 2 mps 676 mmHg 44%

    23 September, Saturday

    Time Temperature Precipitation Wind Pressure Humidity
    00:00 +21°C° 0 mm 2 mps 676 mmHg 44%
    01:00 +21°C° 0 mm 2 mps 675 mmHg 44%
    02:00 +21°C° 0 mm 2 mps 675 mmHg 45%
    03:00 +21°C° 0 mm 2 mps 675 mmHg 45%
    04:00 +21°C° 0 mm 2 mps 675 mmHg 44%
    05:00 +21°C° 0 mm 2 mps 675 mmHg 44%
    06:00 +21°C° 0 mm 2 mps 675 mmHg 43%
    07:00 +22°C° 0 mm 3 mps 676 mmHg 42%
    08:00 +24°C° 0 mm 3 mps 676 mmHg 41%
    09:00 +25°C° 0 mm 3 mps 677 mmHg 39%
    10:00 +25°C° 0 mm 3 mps 677 mmHg 37%
    11:00 +26°C° 0 mm 3 mps 677 mmHg 35%
    12:00 +26°C° 0 mm 3 mps 677 mmHg 33%
    13:00 +27°C° 0 mm 3 mps 677 mmHg 31%
    14:00 +27°C° 0 mm 3 mps 677 mmHg 30%
    15:00 +27°C° 0 mm 3 mps 676 mmHg 29%
    16:00 +27°C° 0 mm 3 mps 676 mmHg 31%
    17:00 +26°C° 0 mm 2 mps 676 mmHg 34%
    18:00 +25°C° 0 mm 2 mps 676 mmHg 36%
    19:00 +24°C° 0 mm 2 mps 676 mmHg 38%
    20:00 +24°C° 0 mm 2 mps 676 mmHg 41%
    21:00 +23°C° 0 mm 1 mps 676 mmHg 44%
    22:00 +23°C° 0 mm 1 mps 675 mmHg 45%
    23:00 +22°C° 0 mm 1 mps 675 mmHg 46%

    24 September, Sunday

    Time Temperature Precipitation Wind Pressure Humidity
    00:00 +22°C° 0 mm 1 mps 675 mmHg 47%
    01:00 +21°C° 0 mm 1 mps 675 mmHg 49%
    02:00 +21°C° 0 mm 1 mps 675 mmHg 52%
    03:00 +20°C° 0 mm 1 mps 674 mmHg 55%
    04:00 +20°C° 0.1 mm 1 mps 674 mmHg 58%
    05:00 +19°C° 0.1 mm 1 mps 675 mmHg 61%
    06:00 +19°C° 0.1 mm 1 mps 675 mmHg 64%
    07:00 +19°C° 0.1 mm 2 mps 675 mmHg 59%
    08:00 +21°C° 0.1 mm 2 mps 676 mmHg 54%
    09:00 +23°C° 0.1 mm 2 mps 677 mmHg 49%
    10:00 +24°C° 0 mm 2 mps 677 mmHg 46%
    11:00 +24°C° 0 mm 3 mps 677 mmHg 42%
    12:00 +25°C° 0 mm 3 mps 677 mmHg 39%
    13:00 +25°C° 0 mm 4 mps 677 mmHg 40%
    14:00 +25°C° 0 mm 4 mps 677 mmHg 41%
    15:00 +25°C° 0 mm 4 mps 677 mmHg 41%
    16:00 +23°C° 0 mm 4 mps 677 mmHg 46%
    17:00 +22°C° 0 mm 4 mps 677 mmHg 51%
    18:00 +21°C° 0 mm 4 mps 677 mmHg 57%
    19:00 +20°C° 0 mm 3 mps 677 mmHg 60%
    20:00 +19°C° 0 mm 3 mps 677 mmHg 64%
    21:00 +19°C° 0 mm 2 mps 677 mmHg 68%
    22:00 +18°C° 0 mm 2 mps 676 mmHg 69%
    23:00 +19°C° 0 mm 1 mps 676 mmHg 70%

    25 September, Monday

    Time Temperature Precipitation Wind Pressure Humidity
    00:00 +19°C° 0 mm 1 mps 676 mmHg 72%
    01:00 +18°C° 0 mm 1 mps 676 mmHg 73%
    02:00 +18°C° 0 mm 1 mps 676 mmHg 75%
    03:00 +16°C° 0 mm 1 mps 675 mmHg 76%
    04:00 +16°C° 0 mm 1 mps 675 mmHg 76%
    05:00 +16°C° 0 mm 1 mps 675 mmHg 76%
    06:00 +16°C° 0 mm 1 mps 675 mmHg 76%
    07:00 +18°C° 0 mm 1 mps 676 mmHg 66%
    08:00 +20°C° 0 mm 1 mps 676 mmHg 55%
    09:00 +21°C° 0 mm 1 mps 677 mmHg 45%
    10:00 +22°C° 0 mm 1 mps 677 mmHg 40%
    11:00 +24°C° 0 mm 1 mps 677 mmHg 36%
    12:00 +25°C° 0 mm 2 mps 677 mmHg 31%
    13:00 +25°C° 0 mm 2 mps 677 mmHg 31%
    14:00 +25°C° 0 mm 2 mps 677 mmHg 31%
    15:00 +25°C° 0 mm 2 mps 676 mmHg 31%
    16:00 +24°C° 0 mm 3 mps 676 mmHg 37%
    17:00 +22°C° 0 mm 3 mps 676 mmHg 42%
    18:00 +21°C° 0 mm 3 mps 676 mmHg 47%
    19:00 +21°C° 0 mm 2 mps 676 mmHg 52%
    20:00 +20°C° 0 mm 2 mps 676 mmHg 56%
    21:00 +20°C° 0 mm 1 mps 676 mmHg 61%
    22:00 +20°C° 0 mm 1 mps 675 mmHg 63%
    23:00 +19°C° 0 mm 1 mps 675 mmHg 64%
    Show more